Glenwood, MN

12:24 PM CST on February 21, 2017 (GMT -0600)
Glenwood Municipal

Weather History for KGHW - October, 2010

Change the Weather History Date:

Monday, October 4, 2010

  Actual Average Record
Temperature  
Mean Temperature 52 °F -  
Max Temperature 66 °F 62 °F 82 °F (1987)
Min Temperature 39 °F 39 °F 24 °F (1989)
Degree Days  
Heating Degree Days 12    
Growing Degree Days 2 (Base 50)    
Moisture  
Dew Point 33 °F    
Average Humidity 53    
Maximum Humidity 75    
Minimum Humidity 28    
Precipitation  
Precipitation 0.00 in - - ()
Sea Level Pressure  
Sea Level Pressure 30.26 in    
Wind  
Wind Speed 5 mph (SSE)    
Max Wind Speed 21 mph    
Max Gust Speed 25 mph    
Visibility 10 miles    
Events      
Averages and records for this station are not official NWS values.
T = Trace of Precipitation, MM = Missing Value Source: NWS Daily Summary

Daily Weather History Graph

Daily Weather History Graph

Search for Another Location

Airport or City:

Trip Planner

Search our weather history database for the weather conditions in past years. The results will help you decide how hot, cold, wet, or windy it might be!

Date:

Astronomy

Oct. 04, 2010 Rise Set
Actual Time 7:23 AM CDT 6:55 PM CDT
Civil Twilight 6:53 AM CDT 7:25 PM CDT
Nautical Twilight 6:19 AM CDT 7:59 PM CDT
Astronomical Twilight 5:44 AM CDT 8:34 PM CDT
Moon 3:22 AM CDT (10/4) 5:03 PM CDT (10/4)
Length of Visible Light 12h 31m
Length of Day
11h 32m
Waning Crescent, 14% of the Moon is Illuminated
Oct 4
Waning Crescent
Oct 7
New
Oct 14
First Quarter
Oct 22
Full
Oct 30
Last Quarter

Hourly Weather History & Observations

Time (CDT) Temp. Windchill Dew Point Humidity Pressure Visibility Wind Dir Wind Speed Gust Speed Precip Events Conditions
12:13 AM 42.8 °F - 30.2 °F 61% 30.29 in 10.0 mi Calm Calm - N/A   Clear
12:33 AM 42.8 °F - 30.2 °F 61% 30.29 in 10.0 mi Calm Calm - N/A   Clear
12:53 AM 41.0 °F - 30.2 °F 65% 30.29 in 10.0 mi Calm Calm - N/A   Clear
1:13 AM 41.0 °F - 30.2 °F 65% 30.29 in 10.0 mi Calm Calm - N/A   Clear
1:33 AM 39.2 °F - 30.2 °F 70% 30.29 in 10.0 mi Calm Calm - N/A   Clear
1:53 AM 39.2 °F - 30.2 °F 70% 30.29 in 10.0 mi Calm Calm - N/A   Clear
2:13 AM 39.2 °F - 30.2 °F 70% 30.29 in 10.0 mi Calm Calm - N/A   Clear
2:33 AM 39.2 °F - 30.2 °F 70% 30.29 in 10.0 mi Calm Calm - N/A   Clear
2:53 AM 39.2 °F 35.0 °F 30.2 °F 70% 30.28 in 10.0 mi South 5.8 mph - N/A   Clear
3:14 AM 41.0 °F 36.4 °F 30.2 °F 65% 30.28 in 10.0 mi South 6.9 mph - N/A   Clear
3:33 AM 39.2 °F 33.0 °F 30.2 °F 70% 30.28 in 10.0 mi SSE 9.2 mph - N/A   Clear
3:53 AM 39.2 °F - 30.2 °F 70% 30.27 in 10.0 mi Calm Calm - N/A   Clear
4:13 AM 39.2 °F 32.5 °F 32.0 °F 75% 30.27 in 10.0 mi South 10.4 mph - N/A   Clear
4:33 AM 41.0 °F - 32.0 °F 70% 30.27 in 10.0 mi Calm Calm - N/A   Clear
4:53 AM 41.0 °F 34.3 °F 32.0 °F 70% 30.27 in 10.0 mi South 11.5 mph - N/A   Clear
5:13 AM 39.2 °F - 32.0 °F 75% 30.27 in 10.0 mi Calm Calm - N/A   Clear
5:33 AM 39.2 °F - 32.0 °F 75% 30.27 in 10.0 mi Calm Calm - N/A   Clear
5:53 AM 39.2 °F 32.5 °F 32.0 °F 75% 30.27 in 10.0 mi SSE 10.4 mph - N/A   Clear
6:13 AM 39.2 °F 32.5 °F 32.0 °F 75% 30.28 in 10.0 mi SSE 10.4 mph - N/A   Clear
6:33 AM 39.2 °F 33.0 °F 32.0 °F 75% 30.28 in 10.0 mi SSE 9.2 mph - N/A   Clear
6:53 AM 39.2 °F 32.5 °F 32.0 °F 75% 30.28 in 10.0 mi South 10.4 mph - N/A   Clear
7:13 AM 42.8 °F 37.0 °F 33.8 °F 70% 30.28 in 10.0 mi South 10.4 mph - N/A   Clear
7:33 AM 42.8 °F 35.8 °F 33.8 °F 70% 30.28 in 10.0 mi South 13.8 mph - N/A   Clear
7:53 AM 42.8 °F 36.2 °F 33.8 °F 70% 30.28 in 10.0 mi South 12.7 mph - N/A   Clear
8:13 AM 44.6 °F 38.4 °F 33.8 °F 66% 30.28 in 10.0 mi South 12.7 mph - N/A   Clear
8:33 AM 44.6 °F 38.4 °F 33.8 °F 66% 30.28 in 10.0 mi South 12.7 mph - N/A   Clear
8:53 AM 46.4 °F 40.7 °F 35.6 °F 66% 30.28 in 10.0 mi South 12.7 mph - N/A   Clear
9:13 AM 48.2 °F - 35.6 °F 62% 30.29 in 10.0 mi South 13.8 mph - N/A   Clear
9:33 AM 51.8 °F - 35.6 °F 54% 30.29 in 10.0 mi South 17.3 mph - N/A   Clear
9:54 AM 51.8 °F - 35.6 °F 54% 30.29 in 10.0 mi South 17.3 mph 20.7 mph N/A   Clear
10:13 AM 53.6 °F - 35.6 °F 51% 30.29 in 10.0 mi South 12.7 mph 17.3 mph N/A   Clear
10:33 AM 55.4 °F - 35.6 °F 47% 30.30 in 10.0 mi South 17.3 mph - N/A   Clear
10:53 AM 55.4 °F - 35.6 °F 47% 30.29 in 10.0 mi South 13.8 mph 20.7 mph N/A   Clear
11:13 AM 57.2 °F - 35.6 °F 44% 30.29 in 10.0 mi South 12.7 mph 19.6 mph N/A   Clear
11:33 AM 59.0 °F - 35.6 °F 42% 30.29 in 10.0 mi Calm Calm - N/A   Clear
11:53 AM 60.8 °F - 35.6 °F 39% 30.28 in 10.0 mi Calm Calm - N/A   Clear
12:13 PM 60.8 °F - 35.6 °F 39% 30.28 in 10.0 mi Calm Calm - N/A   Clear
12:33 PM 62.6 °F - 35.6 °F 37% 30.28 in 10.0 mi South 11.5 mph 23.0 mph N/A   Clear
12:53 PM 62.6 °F - 35.6 °F 37% 30.27 in 10.0 mi SSE 8.1 mph 21.9 mph N/A   Clear
1:13 PM 64.4 °F - 35.6 °F 34% 30.26 in 10.0 mi Calm Calm - N/A   Clear
1:33 PM 64.4 °F - 35.6 °F 34% 30.25 in 10.0 mi Calm Calm - N/A   Clear
1:53 PM 64.4 °F - 33.8 °F 32% 30.25 in 10.0 mi South 15.0 mph 21.9 mph N/A   Clear
2:13 PM 66.2 °F - 33.8 °F 30% 30.24 in 10.0 mi South 8.1 mph 24.2 mph N/A   Clear
2:33 PM 66.2 °F - 33.8 °F 30% 30.24 in 10.0 mi SSE 13.8 mph 21.9 mph N/A   Clear
2:53 PM 66.2 °F - 33.8 °F 30% 30.23 in 10.0 mi South 6.9 mph 25.3 mph N/A   Clear
3:13 PM 66.2 °F - 33.8 °F 30% 30.23 in 10.0 mi Calm Calm - N/A   Clear
3:33 PM 66.2 °F - 33.8 °F 30% 30.22 in 10.0 mi SSE 20.7 mph - N/A   Clear
3:53 PM 66.2 °F - 32.0 °F 28% 30.22 in 10.0 mi SSE 9.2 mph 21.9 mph N/A   Clear
4:13 PM 66.2 °F - 32.0 °F 28% 30.21 in 10.0 mi Calm Calm - N/A   Clear
4:33 PM 66.2 °F - 33.8 °F 30% 30.21 in 10.0 mi SSE 11.5 mph 21.9 mph N/A   Clear
4:53 PM 66.2 °F - 32.0 °F 28% 30.21 in 10.0 mi SSE 13.8 mph 19.6 mph N/A   Clear
5:13 PM 66.2 °F - 33.8 °F 30% 30.21 in 10.0 mi SSE 9.2 mph 20.7 mph N/A   Clear
5:33 PM 64.4 °F - 32.0 °F 30% 30.20 in 10.0 mi SSE 9.2 mph 18.4 mph N/A   Clear
5:53 PM 64.4 °F - 32.0 °F 30% 30.20 in 10.0 mi SSE 11.5 mph 20.7 mph N/A   Clear
6:13 PM 62.6 °F - 32.0 °F 32% 30.19 in 10.0 mi Calm Calm - N/A   Clear
6:34 PM 60.8 °F - 33.8 °F 36% 30.19 in 10.0 mi SE 4.6 mph - N/A   Clear
6:53 PM 57.2 °F - 35.6 °F 44% 30.19 in 10.0 mi SE 5.8 mph - N/A   Clear
7:13 PM 55.4 °F - 35.6 °F 47% 30.19 in 10.0 mi SE 5.8 mph - N/A   Clear
7:33 PM 55.4 °F - 35.6 °F 47% 30.19 in 10.0 mi SE 3.5 mph - N/A   Clear
7:53 PM 55.4 °F - 35.6 °F 47% 30.19 in 10.0 mi Calm Calm - N/A   Clear
8:14 PM 55.4 °F - 35.6 °F 47% 30.19 in 10.0 mi SE 6.9 mph 17.3 mph N/A   Clear
8:33 PM 53.6 °F - 35.6 °F 51% 30.19 in 10.0 mi Calm Calm - N/A   Clear
8:54 PM 53.6 °F - 33.8 °F 47% 30.19 in 10.0 mi Calm Calm - N/A   Clear
9:14 PM 51.8 °F - 33.8 °F 50% 30.19 in 10.0 mi Calm Calm - N/A   Clear
9:33 PM 51.8 °F - 33.8 °F 50% 30.20 in 10.0 mi Calm Calm - N/A   Clear
9:53 PM 51.8 °F - 35.6 °F 54% 30.20 in 10.0 mi Calm Calm - N/A   Clear
10:13 PM 51.8 °F - 33.8 °F 50% 30.20 in 10.0 mi Calm Calm - N/A   Clear
10:33 PM 51.8 °F - 33.8 °F 50% 30.21 in 10.0 mi Calm Calm - N/A   Clear
10:53 PM 51.8 °F - 33.8 °F 50% 30.21 in 10.0 mi Calm Calm - N/A   Clear
11:13 PM 53.6 °F - 33.8 °F 47% 30.22 in 10.0 mi Calm Calm - N/A   Clear
11:33 PM 53.6 °F - 33.8 °F 47% 30.22 in 10.0 mi Calm Calm - N/A   Clear
11:53 PM 53.6 °F - 33.8 °F 47% 30.23 in 10.0 mi Calm Calm - N/A   Clear